| time (UTC) | temp C | wind direction | speed KPH | gust KPH | rain 1hr cm | rain 24hr cm | rain mn cm | humidity % | barometer mb |
| 20260507200011 | 34 | 102 | 0.0 | 0.0 | 0.00 | 0.00 | 0.00 | 100 | 1013.9 |
| 20260507194510 | 34 | 135 | 0.0 | 0.0 | 0.00 | 0.00 | 0.00 | 100 | 1014.1 |
| 20260507191511 | 33 | 101 | 0.0 | 3.2 | 0.00 | 0.00 | 0.00 | 100 | 1014.3 |
| 20260507190009 | 33 | 105 | 0.0 | 3.2 | 0.00 | 0.00 | 0.00 | 100 | 1014.5 |
| 20260507184510 | 33 | 119 | 0.0 | 3.2 | 0.00 | 0.00 | 0.00 | 100 | 1014.7 |
| 20260507181508 | 33 | 85 | 1.6 | 4.8 | 0.00 | 0.00 | 0.00 | 100 | 1015.2 |
| 20260507180007 | 33 | 101 | 0.0 | 1.6 | 0.00 | 0.00 | 0.00 | 100 | 1015.3 |
| 20260507174506 | 33 | 103 | 3.2 | 4.8 | 0.00 | 0.00 | 0.00 | 100 | 1015.4 |
| 20260507171503 | 33 | 97 | 0.0 | 6.4 | 0.00 | 0.00 | 0.00 | 100 | 1015.5 |
| 20260507170002 | 33 | 92 | 0.0 | 4.8 | 0.00 | 0.00 | 0.00 | 100 | 1015.6 |
| 20260507164600 | 33 | 63 | 0.0 | 4.8 | 0.00 | 0.00 | 0.00 | 100 | 1015.9 |
| 20260507163119 | 33 | 101 | 0.0 | 4.8 | 0.00 | 0.00 | 0.00 | 100 | 1016.1 |
| 20260507161556 | 32 | 106 | 0.0 | 3.2 | 0.00 | 0.00 | 0.00 | 100 | 1016.1 |
| 20260507160055 | 32 | 88 | 0.0 | 4.8 | 0.00 | 0.00 | 0.00 | 100 | 1016.1 |
| 20260507154553 | 32 | 104 | 0.0 | 4.8 | 0.00 | 0.00 | 0.00 | 100 | 1016.2 |
| 20260507151552 | 31 | 86 | 0.0 | 4.8 | 0.00 | 0.00 | 0.00 | 100 | 1016.2 |
| 20260507150051 | 32 | 60 | 1.6 | 4.8 | 0.00 | 0.00 | 0.00 | 100 | 1016.3 |
| 20260507144612 | 31 | 91 | 0.0 | 4.8 | 0.00 | 0.00 | 0.00 | 100 | 1016.2 |
| 20260507141553 | 31 | 83 | 0.0 | 4.8 | 0.00 | 0.00 | 0.00 | 100 | 1016.2 |
| 20260507140043 | 30 | 99 | 0.0 | 3.2 | 0.00 | 0.00 | 0.00 | 100 | 1016.0 |
| 20260507134547 | 30 | 77 | 0.0 | 3.2 | 0.00 | 0.00 | 0.00 | 100 | 1016.1 |
| 20260507131542 | 30 | 53 | 0.0 | 3.2 | 0.00 | 0.00 | 0.00 | 100 | 1015.8 |
| 20260507130037 | 30 | 90 | 0.0 | 1.6 | 0.00 | 0.00 | 0.00 | 100 | 1015.8 |
| 20260507124535 | 30 | 111 | 0.0 | 0.0 | 0.00 | 0.00 | 0.00 | 100 | 1015.7 |
| 20260507121530 | 28 | 80 | 0.0 | 0.0 | 0.00 | 0.00 | 0.00 | 100 | 1015.5 |
| 20260507120027 | 27 | 89 | 0.0 | 0.0 | 0.00 | 0.00 | 0.00 | 100 | 1015.3 |
| 20260507114524 | 27 | 96 | 0.0 | 0.0 | 0.00 | 0.00 | 0.00 | 100 | 1015.2 |
| 20260507111528 | -17 | 0.0 | 0.0 | 0.00 | 0.00 | 0.00 | 1015.0 | ||
| 20260507110015 | -17 | 0.0 | 0.0 | 0.00 | 0.00 | 0.00 | 1014.9 | ||
| 20260507104511 | -17 | 0.0 | 0.0 | 0.00 | 0.00 | 0.00 | 1014.7 | ||
| 20260507100059 | -17 | 0.0 | 0.0 | 0.00 | 0.00 | 0.00 | 1014.3 | ||
| 20260507094555 | -17 | 0.0 | 0.0 | 0.00 | 0.00 | 0.00 | 1014.1 | ||
| 20260507091546 | -17 | 0.0 | 0.0 | 0.00 | 0.00 | 0.00 | 1014.1 | ||
| 20260507090043 | -17 | 0.0 | 0.0 | 0.00 | 0.00 | 0.00 | 1014.1 | ||
| 20260507084543 | -17 | 0.0 | 0.0 | 0.00 | 0.00 | 0.00 | 1014.1 | ||
| 20260507081535 | 26 | 98 | 0.0 | 0.0 | 0.00 | 0.00 | 0.00 | 100 | 1014.1 |
| 20260507080038 | 26 | 97 | 0.0 | 0.0 | 0.00 | 0.00 | 0.00 | 100 | 1014.1 |
| 20260507074533 | 27 | 104 | 0.0 | 0.0 | 0.00 | 0.00 | 0.00 | 100 | 1014.1 |
| 20260507071532 | 26 | 58 | 0.0 | 0.0 | 0.00 | 0.00 | 0.00 | 100 | 1014.4 |
| 20260507070032 | 26 | 77 | 0.0 | 0.0 | 0.00 | 0.00 | 0.00 | 100 | 1014.5 |
| 20260507064532 | 26 | 110 | 0.0 | 0.0 | 0.00 | 0.00 | 0.00 | 100 | 1014.5 |
| 20260507061531 | 26 | 110 | 0.0 | 0.0 | 0.00 | 0.00 | 0.00 | 100 | 1014.9 |
| 20260507060045 | 26 | 113 | 0.0 | 0.0 | 0.00 | 0.00 | 0.00 | 100 | 1015.2 |
| 20260507054538 | 26 | 134 | 0.0 | 0.0 | 0.00 | 0.00 | 0.00 | 100 | 1015.3 |
| 20260507051528 | 27 | 23 | 0.0 | 1.6 | 0.00 | 0.00 | 0.00 | 100 | 1015.5 |
| 20260507050027 | 27 | 100 | 0.0 | 0.0 | 0.00 | 0.00 | 0.00 | 100 | 1015.6 |
| 20260507044545 | 27 | 123 | 0.0 | 1.6 | 0.00 | 0.00 | 0.00 | 100 | 1015.8 |
| 20260507041527 | 27 | 89 | 0.0 | 0.0 | 0.00 | 0.00 | 0.00 | 100 | 1016.0 |
| 20260507040032 | 27 | 88 | 0.0 | 0.0 | 0.00 | 0.00 | 0.00 | 100 | 1016.1 |
| 20260507034528 | 27 | 105 | 0.0 | 0.0 | 0.00 | 0.00 | 0.00 | 100 | 1016.1 |
| 20260507031524 | 27 | 98 | 0.0 | 0.0 | 0.00 | 0.00 | 0.00 | 100 | 1016.0 |
| 20260507030125 | 27 | 101 | 0.0 | 0.0 | 0.00 | 0.00 | 0.00 | 100 | 1016.1 |
| 20260507024524 | 27 | 69 | 0.0 | 0.0 | 0.00 | 0.00 | 0.00 | 100 | 1015.8 |
| 20260507021529 | 27 | 98 | 0.0 | 1.6 | 0.00 | 0.00 | 0.00 | 100 | 1015.4 |
| 20260507020037 | 27 | 82 | 0.0 | 0.0 | 0.00 | 0.00 | 0.00 | 100 | 1015.3 |
| 20260507014525 | 27 | 96 | 0.0 | 0.0 | 0.00 | 0.00 | 0.00 | 100 | 1015.3 |
| 20260507013024 | 27 | 114 | 0.0 | 0.0 | 0.00 | 0.00 | 0.00 | 100 | 1015.2 |
| 20260507011524 | 27 | 124 | 0.0 | 0.0 | 0.00 | 0.00 | 0.00 | 100 | 1015.1 |
| 20260507004526 | 27 | 96 | 0.0 | 0.0 | 0.00 | 0.00 | 0.00 | 100 | 1015.1 |
| 20260507003026 | 27 | 114 | 0.0 | 1.6 | 0.00 | 0.00 | 0.00 | 100 | 1015.0 |
| 20260507001524 | 28 | 100 | 0.0 | 0.0 | 0.00 | 0.00 | 0.00 | 100 | 1014.9 |
| 20260506234521 | 28 | 107 | 0.0 | 0.0 | 0.00 | 0.00 | 0.00 | 100 | 1014.5 |
| 20260506233020 | 28 | 96 | 0.0 | 0.0 | 0.00 | 0.00 | 0.00 | 100 | 1014.2 |
| 20260506231520 | 29 | 88 | 0.0 | 1.6 | 0.00 | 0.00 | 0.00 | 100 | 1014.2 |
| 20260506224520 | 30 | 64 | 0.0 | 0.0 | 0.00 | 0.00 | 0.00 | 100 | 1014.3 |
| 20260506223018 | 31 | 91 | 0.0 | 1.6 | 0.00 | 0.00 | 0.00 | 100 | 1014.4 |
| 20260506221517 | 31 | 97 | 0.0 | 1.6 | 0.00 | 0.00 | 0.00 | 100 | 1014.3 |
| 20260506214516 | 32 | 96 | 0.0 | 0.0 | 0.00 | 0.00 | 0.00 | 100 | 1014.1 |
| 20260506213016 | 32 | 95 | 0.0 | 0.0 | 0.00 | 0.00 | 0.00 | 100 | 1014.0 |
| 20260506211515 | 32 | 109 | 0.0 | 1.6 | 0.00 | 0.00 | 0.00 | 100 | 1014.1 |
| 20260506203015 | 33 | 104 | 0.0 | 1.6 | 0.00 | 0.00 | 0.00 | 100 | 1014.4 |
| 20260506201516 | 33 | 98 | 0.0 | 3.2 | 0.00 | 0.00 | 0.00 | 100 | 1014.6 |